• en Belgique
  • Liste des pays
  • À 7 jours
  • Température de l'eau
  • Carte satellitaire
  • Carte météo
  • Widgets météo
  • user-avatar
    Se connecter

    Météo par heure à Choumen

    Ce jour, 20 Juillet, Vendredi

    Heure Température Précipitation Vent Pression Humidité
    00:00 +19°C° 0,1 mm 4 m/s 725 mmHg 91%
    01:00 +19°C° 0,1 mm 4 m/s 725 mmHg 91%
    02:00 +18°C° 0,1 mm 4 m/s 725 mmHg 91%
    03:00 +18°C° 0 mm 4 m/s 725 mmHg 92%
    04:00 +18°C° 0 mm 4 m/s 725 mmHg 92%
    05:00 +18°C° 0 mm 4 m/s 725 mmHg 93%
    06:00 +19°C° 0 mm 4 m/s 725 mmHg 88%
    07:00 +21°C° 0 mm 4 m/s 726 mmHg 83%
    08:00 +22°C° 0 mm 5 m/s 726 mmHg 77%
    09:00 +25°C° 0,2 mm 5 m/s 726 mmHg 71%
    10:00 +27°C° 0,2 mm 4 m/s 726 mmHg 65%
    11:00 +28°C° 0,2 mm 4 m/s 726 mmHg 59%
    12:00 +29°C° 0,5 mm 4 m/s 726 mmHg 57%
    13:00 +29°C° 0,5 mm 4 m/s 726 mmHg 55%
    14:00 +30°C° 0,5 mm 4 m/s 726 mmHg 52%
    15:00 +30°C° 0,7 mm 3 m/s 726 mmHg 54%
    16:00 +30°C° 0,7 mm 3 m/s 726 mmHg 55%
    17:00 +29°C° 0,7 mm 3 m/s 726 mmHg 56%
    18:00 +28°C° 0,6 mm 2 m/s 726 mmHg 62%
    19:00 +26°C° 0,6 mm 2 m/s 726 mmHg 68%
    20:00 +24°C° 0,6 mm 2 m/s 726 mmHg 74%
    21:00 +24°C° 0,2 mm 2 m/s 726 mmHg 76%
    22:00 +23°C° 0,2 mm 2 m/s 726 mmHg 78%
    23:00 +21°C° 0,2 mm 2 m/s 726 mmHg 80%

    Demain, 21 Juillet, Samedi

    Heure Température Précipitation Vent Pression Humidité
    00:00 +21°C° 0,5 mm 2 m/s 726 mmHg 81%
    01:00 +21°C° 0,5 mm 3 m/s 727 mmHg 81%
    02:00 +20°C° 0,5 mm 3 m/s 727 mmHg 82%
    03:00 +20°C° 0 mm 3 m/s 727 mmHg 82%
    04:00 +19°C° 0 mm 3 m/s 727 mmHg 81%
    05:00 +19°C° 0 mm 3 m/s 727 mmHg 81%
    06:00 +20°C° 0 mm 3 m/s 727 mmHg 76%
    07:00 +22°C° 0 mm 4 m/s 727 mmHg 71%
    08:00 +23°C° 0 mm 4 m/s 728 mmHg 67%
    09:00 +26°C° 0,2 mm 4 m/s 728 mmHg 63%
    10:00 +27°C° 0,2 mm 4 m/s 728 mmHg 60%
    11:00 +29°C° 0,2 mm 3 m/s 728 mmHg 56%
    12:00 +29°C° 0,7 mm 3 m/s 728 mmHg 55%
    13:00 +30°C° 0,7 mm 3 m/s 728 mmHg 53%
    14:00 +30°C° 0,7 mm 3 m/s 727 mmHg 51%
    15:00 +30°C° 0,5 mm 3 m/s 727 mmHg 52%
    16:00 +30°C° 0,5 mm 3 m/s 727 mmHg 53%
    17:00 +30°C° 0,5 mm 2 m/s 727 mmHg 53%
    18:00 +28°C° 0,6 mm 2 m/s 727 mmHg 60%
    19:00 +26°C° 0,6 mm 1 m/s 727 mmHg 66%
    20:00 +24°C° 0,6 mm 1 m/s 727 mmHg 72%
    21:00 +24°C° 0,1 mm 1 m/s 727 mmHg 74%
    22:00 +23°C° 0,1 mm 1 m/s 727 mmHg 77%
    23:00 +22°C° 0,1 mm 1 m/s 727 mmHg 79%

    Après-demain, 22 Juillet, Dimanche

    Heure Température Précipitation Vent Pression Humidité
    00:00 +22°C° 0 mm 1 m/s 727 mmHg 79%
    01:00 +22°C° 0 mm 1 m/s 727 mmHg 79%
    02:00 +21°C° 0 mm 1 m/s 727 mmHg 80%
    03:00 +21°C° 0,3 mm 1 m/s 727 mmHg 79%
    04:00 +21°C° 0,3 mm 1 m/s 727 mmHg 79%
    05:00 +21°C° 0,3 mm 1 m/s 727 mmHg 78%
    06:00 +23°C° 0,2 mm 1 m/s 727 mmHg 72%
    07:00 +24°C° 0,2 mm 2 m/s 727 mmHg 65%
    08:00 +26°C° 0,2 mm 2 m/s 727 mmHg 59%
    09:00 +28°C° 0,3 mm 2 m/s 727 mmHg 55%
    10:00 +29°C° 0,3 mm 2 m/s 727 mmHg 51%
    11:00 +30°C° 0,3 mm 3 m/s 727 mmHg 47%
    12:00 +31°C° 0,2 mm 3 m/s 727 mmHg 44%
    13:00 +33°C° 0,2 mm 3 m/s 727 mmHg 42%
    14:00 +33°C° 0,2 mm 3 m/s 727 mmHg 40%
    15:00 +33°C° 0 mm 3 m/s 727 mmHg 41%
    16:00 +33°C° 0 mm 3 m/s 726 mmHg 42%
    17:00 +33°C° 0 mm 3 m/s 726 mmHg 43%
    18:00 +30°C° 0 mm 2 m/s 726 mmHg 50%
    19:00 +28°C° 0 mm 2 m/s 726 mmHg 56%
    20:00 +26°C° 0 mm 1 m/s 726 mmHg 63%
    21:00 +25°C° 0 mm 2 m/s 726 mmHg 67%
    22:00 +24°C° 0 mm 2 m/s 726 mmHg 71%
    23:00 +23°C° 0 mm 2 m/s 726 mmHg 76%

    23 Juillet, Lundi

    Heure Température Précipitation Vent Pression Humidité
    00:00 +23°C° 0,1 mm 2 m/s 726 mmHg 78%
    01:00 +22°C° 0,1 mm 1 m/s 726 mmHg 79%
    02:00 +22°C° 0,1 mm 1 m/s 725 mmHg 81%
    03:00 +22°C° 0 mm 1 m/s 725 mmHg 81%
    04:00 +22°C° 0 mm 1 m/s 725 mmHg 80%
    05:00 +22°C° 0 mm 1 m/s 725 mmHg 80%
    06:00 +24°C° 0 mm 1 m/s 725 mmHg 74%
    07:00 +26°C° 0 mm 1 m/s 725 mmHg 67%
    08:00 +28°C° 0 mm 1 m/s 725 mmHg 61%
    09:00 +29°C° 0 mm 2 m/s 725 mmHg 55%
    10:00 +31°C° 0 mm 2 m/s 725 mmHg 48%
    11:00 +34°C° 0 mm 3 m/s 725 mmHg 42%
    12:00 +34°C° 0 mm 3 m/s 725 mmHg 41%
    13:00 +34°C° 0 mm 3 m/s 724 mmHg 41%
    14:00 +35°C° 0 mm 4 m/s 724 mmHg 40%
    15:00 +34°C° 0 mm 4 m/s 723 mmHg 45%
    16:00 +32°C° 0 mm 4 m/s 723 mmHg 50%
    17:00 +30°C° 0 mm 5 m/s 723 mmHg 54%
    18:00 +29°C° 0,1 mm 4 m/s 722 mmHg 61%
    19:00 +27°C° 0,1 mm 4 m/s 722 mmHg 68%
    20:00 +25°C° 0,1 mm 4 m/s 722 mmHg 74%
    21:00 +25°C° 0,5 mm 3 m/s 722 mmHg 78%
    22:00 +24°C° 0,5 mm 3 m/s 722 mmHg 82%
    23:00 +23°C° 0,5 mm 2 m/s 723 mmHg 86%

    24 Juillet, Mardi

    Heure Température Précipitation Vent Pression Humidité
    00:00 +22°C° 1,2 mm 3 m/s 722 mmHg 88%
    01:00 +22°C° 1,2 mm 3 m/s 722 mmHg 89%
    02:00 +22°C° 1,2 mm 4 m/s 722 mmHg 90%
    03:00 +21°C° 0,5 mm 3 m/s 722 mmHg 91%
    04:00 +21°C° 0,5 mm 3 m/s 722 mmHg 92%
    05:00 +21°C° 0,5 mm 2 m/s 722 mmHg 93%
    06:00 +23°C° 2,5 mm 2 m/s 722 mmHg 90%
    07:00 +22°C° 2,5 mm 3 m/s 722 mmHg 87%
    08:00 +24°C° 2,5 mm 3 m/s 723 mmHg 83%
    09:00 +24°C° 2,1 mm 3 m/s 723 mmHg 82%
    10:00 +25°C° 2,1 mm 3 m/s 723 mmHg 80%
    11:00 +25°C° 2,1 mm 3 m/s 723 mmHg 78%
    12:00 +25°C° 2,9 mm 3 m/s 723 mmHg 79%
    13:00 +23°C° 2,9 mm 4 m/s 723 mmHg 81%
    14:00 +23°C° 2,9 mm 4 m/s 723 mmHg 82%
    15:00 +23°C° 0,4 mm 4 m/s 723 mmHg 79%
    16:00 +25°C° 0,4 mm 4 m/s 723 mmHg 76%
    17:00 +25°C° 0,4 mm 4 m/s 723 mmHg 73%
    18:00 +24°C° 0,2 mm 3 m/s 723 mmHg 78%
    19:00 +22°C° 0,2 mm 3 m/s 723 mmHg 83%
    20:00 +21°C° 0,2 mm 2 m/s 723 mmHg 87%
    21:00 +21°C° 0,4 mm 2 m/s 723 mmHg 90%
    22:00 +20°C° 0,4 mm 2 m/s 723 mmHg 92%
    23:00 +20°C° 0,4 mm 2 m/s 723 mmHg 95%

    25 Juillet, Mercredi

    Heure Température Précipitation Vent Pression Humidité
    00:00 +21°C° 0,7 mm 1 m/s 723 mmHg 95%
    01:00 +20°C° 0,7 mm 1 m/s 723 mmHg 96%
    02:00 +20°C° 0,7 mm 1 m/s 723 mmHg 96%
    03:00 +20°C° 0,2 mm 1 m/s 723 mmHg 96%
    04:00 +20°C° 0,2 mm 1 m/s 723 mmHg 96%
    05:00 +20°C° 0,2 mm 1 m/s 724 mmHg 96%
    06:00 +20°C° 0,5 mm 2 m/s 724 mmHg 94%
    07:00 +21°C° 0,5 mm 2 m/s 724 mmHg 92%
    08:00 +22°C° 0,5 mm 3 m/s 725 mmHg 90%
    09:00 +22°C° 1,1 mm 3 m/s 725 mmHg 86%
    10:00 +24°C° 1,1 mm 3 m/s 725 mmHg 82%
    11:00 +25°C° 1,1 mm 3 m/s 725 mmHg 78%
    12:00 +25°C° 0,4 mm 3 m/s 725 mmHg 73%
    13:00 +26°C° 0,4 mm 3 m/s 725 mmHg 69%
    14:00 +27°C° 0,4 mm 3 m/s 725 mmHg 65%
    15:00 +27°C° 0,1 mm 2 m/s 725 mmHg 62%
    16:00 +28°C° 0,1 mm 2 m/s 725 mmHg 60%
    17:00 +28°C° 0,1 mm 2 m/s 725 mmHg 58%
    18:00 +27°C° 0,5 mm 2 m/s 725 mmHg 64%
    19:00 +25°C° 0,5 mm 1 m/s 725 mmHg 70%
    20:00 +21°C° 0,5 mm 0 m/s 725 mmHg 75%
    21:00 +23°C° 0,1 mm 1 m/s 725 mmHg 77%
    22:00 +22°C° 0,1 mm 1 m/s 725 mmHg 78%
    23:00 +22°C° 0,1 mm 1 m/s 725 mmHg 80%
    Voir plus